Weather History for Perry, IA

Change the Weather History Date:

Saturday, December 8, 2012

  Actual Average Record
Temperature  
Mean Temperature 30 °F -  
Max Temperature 39 °F 33 °F 62 °F (1984)
Min Temperature 21 °F 15 °F -16 °F (1976)
Degree Days  
Heating Degree Days 35    
Moisture  
Dew Point 27 °F    
Average Humidity 75    
Maximum Humidity 92    
Minimum Humidity 62    
Precipitation  
Precipitation 0.01 in - - ()
Sea Level Pressure  
Sea Level Pressure 29.97 in    
Wind  
Wind Speed 6 mph (East)    
Max Wind Speed 13 mph    
Max Gust Speed -    
Visibility 9 miles    
Events Snow    
Averages and records for this station are not official NWS values.
T = Trace of Precipitation, MM = Missing Value Source: NWS Daily Summary

Daily Weather History Graph

Daily Weather History Graph

Search for Another Location

Airport:

Trip Planner

Search our weather history database for the weather conditions in past years. The results will help you decide how hot, cold, wet, or windy it might be!

Date:

Astronomy

Dec. 08, 2012 Rise Set
Actual Time 7:31 AM CST 4:45 PM CST
Civil Twilight 7:00 AM CST 5:17 PM CST
Nautical Twilight 6:25 AM CST 5:51 PM CST
Astronomical Twilight 5:51 AM CST 6:25 PM CST
Moon 1:53 AM CST (12/8) 1:19 PM CST (12/8)
Length of Visible Light 10h 16m
Length of Day
9h 13m
Waning Crescent, 28% of the Moon is Illuminated
Dec 8
Waning Crescent
Dec 13
New
Dec 19
First Quarter
Dec 28
Full
Jan 4
Last Quarter

Hourly Weather History & Observations

Time (CST) Temp. Windchill Dew Point Humidity Pressure Visibility Wind Dir Wind Speed Gust Speed Precip Events Conditions
12:15 AM 36.0 °F 30.3 °F 27.5 °F 71% 29.97 in 10.0 mi North 6.9 mph - N/A   Overcast
12:35 AM 35.8 °F 30.1 °F 27.9 °F 73% 29.96 in 10.0 mi North 6.9 mph - N/A   Overcast
12:55 AM 35.4 °F 29.7 °F 27.5 °F 73% 29.96 in 10.0 mi North 6.9 mph - N/A   Overcast
1:15 AM 35.1 °F 30.1 °F 27.1 °F 73% 29.96 in 10.0 mi North 5.8 mph - N/A   Overcast
1:35 AM 34.9 °F 29.0 °F 26.6 °F 72% 29.96 in 10.0 mi North 6.9 mph - N/A   Overcast
1:55 AM 34.7 °F 28.8 °F 26.4 °F 72% 29.96 in 10.0 mi North 6.9 mph - N/A   Overcast
2:15 AM 34.0 °F 28.0 °F 26.2 °F 73% 29.97 in 10.0 mi North 6.9 mph - N/A   Overcast
2:35 AM 33.6 °F 27.5 °F 25.9 °F 73% 29.97 in 10.0 mi North 6.9 mph - N/A   Mostly Cloudy
2:55 AM 32.0 °F 27.5 °F 25.2 °F 76% 29.97 in 10.0 mi NNE 4.6 mph - N/A   Scattered Clouds
3:15 AM 31.8 °F 28.5 °F 25.2 °F 76% 29.97 in 10.0 mi North 3.5 mph - N/A   Clear
3:35 AM 30.6 °F 27.1 °F 24.3 °F 77% 29.97 in 10.0 mi North 3.5 mph - N/A   Clear
3:55 AM 30.6 °F - 23.9 °F 76% 29.97 in 10.0 mi Calm Calm - N/A   Clear
4:15 AM 30.2 °F 25.4 °F 23.4 °F 76% 29.98 in 10.0 mi NW 4.6 mph - N/A   Clear
4:35 AM 24.6 °F 18.8 °F 20.1 °F 83% 29.98 in 10.0 mi NW 4.6 mph - N/A   Clear
4:55 AM 28.6 °F 24.8 °F 23.4 °F 81% 29.98 in 10.0 mi NNW 3.5 mph - N/A   Clear
5:15 AM 25.7 °F 20.1 °F 20.8 °F 82% 29.98 in 10.0 mi NNW 4.6 mph - N/A   Clear
5:35 AM 26.4 °F 20.9 °F 21.7 °F 82% 29.98 in 10.0 mi NNW 4.6 mph - N/A   Clear
5:55 AM 27.5 °F 23.6 °F 22.1 °F 80% 29.99 in 10.0 mi NW 3.5 mph - N/A   Clear
6:15 AM 24.4 °F - 20.3 °F 84% 29.99 in 10.0 mi Calm Calm - N/A   Clear
6:35 AM 25.2 °F - 22.3 °F 89% 30.00 in 10.0 mi Calm Calm - N/A   Clear
6:55 AM 25.5 °F - 22.3 °F 88% 30.00 in 10.0 mi Calm Calm - N/A   Clear
7:15 AM 21.7 °F - 17.4 °F 83% 30.00 in 10.0 mi Calm Calm - N/A   Clear
7:35 AM 21.2 °F 16.4 °F 18.0 °F 87% 30.00 in 10.0 mi NNW 3.5 mph - N/A   Clear
7:55 AM 22.6 °F 18.0 °F 19.6 °F 88% 30.00 in 10.0 mi NNW 3.5 mph - N/A   Clear
8:15 AM 24.4 °F - 21.2 °F 87% 30.00 in 10.0 mi Calm Calm - N/A   Clear
8:35 AM 27.0 °F - 23.2 °F 86% 30.01 in 10.0 mi Calm Calm - N/A   Clear
8:55 AM 30.2 °F - 24.8 °F 80% 30.01 in 10.0 mi Calm Calm - N/A   Clear
9:15 AM 31.3 °F 27.9 °F 25.0 °F 77% 30.00 in 10.0 mi NE 3.5 mph - N/A   Clear
9:35 AM 32.0 °F 27.5 °F 25.5 °F 77% 30.01 in 10.0 mi NE 4.6 mph - N/A   Clear
9:55 AM 33.8 °F 28.6 °F 25.3 °F 71% 30.02 in 10.0 mi East 5.8 mph - N/A   Clear
10:15 AM 33.8 °F 27.7 °F 24.6 °F 69% 30.02 in 10.0 mi East 6.9 mph - N/A   Clear
10:35 AM 34.3 °F 29.2 °F 25.3 °F 70% 30.02 in 10.0 mi East 5.8 mph - N/A   Clear
10:55 AM 35.2 °F 30.3 °F 25.7 °F 68% 30.01 in 10.0 mi East 5.8 mph - N/A   Clear
11:15 AM 36.0 °F 31.1 °F 25.7 °F 66% 30.00 in 10.0 mi ESE 5.8 mph - N/A   Clear
11:35 AM 36.5 °F 31.8 °F 26.2 °F 66% 30.00 in 10.0 mi ESE 5.8 mph - N/A   Clear
11:55 AM 37.0 °F 33.3 °F 26.4 °F 65% 29.99 in 10.0 mi ESE 4.6 mph - N/A   Clear
12:15 PM 38.1 °F 33.7 °F 26.6 °F 63% 29.99 in 10.0 mi ESE 5.8 mph - N/A   Clear
12:35 PM 38.1 °F 33.7 °F 26.4 °F 63% 29.98 in 10.0 mi East 5.8 mph - N/A   Clear
12:55 PM 38.5 °F 34.1 °F 26.6 °F 62% 29.98 in 10.0 mi SE 5.8 mph - N/A   Clear
1:15 PM 38.5 °F 35.0 °F 26.8 °F 63% 29.97 in 10.0 mi SE 4.6 mph - N/A   Clear
1:35 PM 38.8 °F 34.6 °F 27.0 °F 62% 29.97 in 10.0 mi ESE 5.8 mph - N/A   Clear
1:55 PM 39.4 °F 35.2 °F 27.3 °F 62% 29.96 in 10.0 mi ESE 5.8 mph - N/A   Scattered Clouds
2:15 PM 39.4 °F 36.1 °F 27.3 °F 62% 29.95 in 10.0 mi ESE 4.6 mph - N/A   Clear
2:35 PM 39.6 °F 34.0 °F 27.5 °F 62% 29.94 in 10.0 mi ESE 8.1 mph - N/A   Clear
2:55 PM 39.9 °F 33.9 °F 27.7 °F 62% 29.94 in 10.0 mi ESE 9.2 mph - N/A   Clear
3:15 PM 39.7 °F 33.7 °F 27.9 °F 63% 29.94 in 10.0 mi ESE 9.2 mph - N/A   Clear
3:35 PM 39.9 °F 33.9 °F 28.0 °F 63% 29.94 in 10.0 mi ESE 9.2 mph - N/A   Clear
3:55 PM 39.6 °F 33.5 °F 28.2 °F 64% 29.94 in 10.0 mi SE 9.2 mph - N/A   Clear
4:15 PM 39.6 °F 33.5 °F 28.4 °F 64% 29.94 in 10.0 mi ESE 9.2 mph - N/A   Mostly Cloudy
4:35 PM 39.2 °F 33.6 °F 28.4 °F 65% 29.93 in 10.0 mi ESE 8.1 mph - N/A   Scattered Clouds
4:55 PM 38.7 °F 32.4 °F 28.6 °F 67% 29.93 in 10.0 mi ESE 9.2 mph - N/A   Clear
5:15 PM 38.7 °F 32.9 °F 29.1 °F 69% 29.94 in 10.0 mi ESE 8.1 mph - N/A   Mostly Cloudy
5:35 PM 38.7 °F 31.8 °F 29.3 °F 69% 29.94 in 10.0 mi ESE 10.4 mph - N/A   Overcast
5:55 PM 38.5 °F 32.1 °F 29.8 °F 71% 29.94 in 10.0 mi ESE 9.2 mph - N/A   Overcast
6:15 PM 38.5 °F 31.6 °F 29.8 °F 71% 29.94 in 10.0 mi ESE 10.4 mph - N/A   Overcast
6:55 PM 38.7 °F 31.4 °F 31.6 °F 76% 29.95 in 7.0 mi SE 11.5 mph - N/A   Overcast
7:35 PM 35.6 °F 29.2 °F 32.9 °F 90% 29.96 in 1.0 mi SE 8.1 mph - 0.01 in Snow Light Snow
8:15 PM 35.1 °F 29.3 °F 33.1 °F 92% 29.95 in 1.0 mi ESE 6.9 mph - N/A Snow Light Snow
8:35 PM 35.1 °F 29.3 °F 33.1 °F 92% 29.94 in 1.5 mi East 6.9 mph - N/A   Overcast
8:55 PM 35.6 °F 29.2 °F 33.4 °F 92% 29.94 in 2.0 mi ESE 8.1 mph - N/A   Overcast
9:15 PM 35.6 °F 29.2 °F 33.4 °F 92% 29.94 in 2.5 mi ESE 8.1 mph - N/A   Overcast
9:55 PM 36.1 °F 27.7 °F 33.3 °F 89% 29.93 in 5.0 mi SE 12.7 mph - N/A   Scattered Clouds
10:35 PM 36.5 °F 29.2 °F 32.4 °F 85% 29.92 in 7.0 mi SE 10.4 mph - N/A   Mostly Cloudy
10:55 PM 36.5 °F 28.2 °F 32.5 °F 86% 29.92 in 7.0 mi SE 12.7 mph - N/A   Mostly Cloudy
11:15 PM 36.3 °F 28.9 °F 32.7 °F 87% 29.92 in 5.0 mi SE 10.4 mph - N/A   Overcast
11:55 PM 36.5 °F 31.0 °F 32.9 °F 87% 29.92 in 5.0 mi SE 6.9 mph - N/A   Overcast